FW0880 Weather Reports


time (UTC)temp
C
wind
direction
speed
KPH
gust
KPH
rain 1hr
cm
rain 24hr
cm
rain mn
cm
humidity
%
barometer
mb
20260505224109 29 194 6.4 27.4 0.00 0.00 0.00 74 1006.8
20260505223624 29 235 9.7 27.4 0.00 0.00 0.00 74 1006.9
20260505223012 30 251 6.4 22.5 0.00 0.00 0.00 72 1006.9
20260505222529 30 188 4.8 22.5 0.00 0.00 0.00 72 1007.0
20260505222051 30 227 8.0 16.1 0.00 0.00 0.00 71 1006.9
20260505221609 30 194 8.0 22.5 0.00 0.00 0.00 71 1006.9
20260505221015 30 248 8.0 20.9 0.00 0.00 0.00 71 1006.9
20260505220531 30 240 6.4 22.5 0.00 0.00 0.00 71 1007.0
20260505215612 30 214 9.7 22.5 0.00 0.00 0.00 70 1007.0
20260505215017 30 194 8.0 16.1 0.00 0.00 0.00 70 1007.1
20260505214548 30 248 6.4 17.7 0.00 0.00 0.00 70 1007.2
20260505214059 30 213 8.0 17.7 0.00 0.00 0.00 70 1007.2
20260505213618 30 247 9.7 17.7 0.00 0.00 0.00 70 1007.2
20260505213017 30 208 9.7 19.3 0.00 0.00 0.00 70 1007.3
20260505212531 30 227 8.0 19.3 0.00 0.00 0.00 70 1007.3
20260505212105 30 184 8.0 22.5 0.00 0.00 0.00 70 1007.4
20260505211621 30 207 6.4 22.5 0.00 0.00 0.00 70 1007.5
20260505211001 30 251 8.0 20.9 0.00 0.00 0.00 69 1007.5
20260505210520 30 239 9.7 20.9 0.00 0.00 0.00 70 1007.5
20260505210036 30 202 6.4 17.7 0.00 0.00 0.00 70 1007.6
20260505205527 30 212 8.0 16.1 0.00 0.00 0.00 70 1007.7
20260505205104 30 215 9.7 16.1 0.00 0.00 0.00 70 1007.6
20260505204620 30 205 6.4 17.7 0.00 0.00 0.00 70 1007.8
20260505204032 30 203 8.0 16.1 0.00 0.00 0.00 70 1007.9
20260505203556 30 268 4.8 16.1 0.00 0.00 0.00 71 1007.9
20260505203502 30 212 4.8 16.1 0.00 0.00 0.00 70 1007.9
20260505203001 30 160 4.8 14.5 0.00 0.00 0.00 71 1008.0
20260505202521 30 173 9.7 19.3 0.00 0.00 0.00 71 1008.1
20260505202107 30 211 9.7 19.3 0.00 0.00 0.00 70 1008.1
20260505201623 30 207 8.0 16.1 0.00 0.00 0.00 71 1008.1
20260505201019 30 182 8.0 19.3 0.00 0.00 0.00 71 1008.1
20260505200535 30 263 8.0 19.3 0.00 0.00 0.00 70 1008.2
20260505200051 30 192 8.0 16.1 0.00 0.00 0.00 70 1008.3
20260505195604 30 232 8.0 16.1 0.00 0.00 0.00 69 1008.4
20260505195018 30 202 8.0 16.1 0.00 0.00 0.00 69 1008.4
20260505194538 30 232 6.4 14.5 0.00 0.00 0.00 69 1008.4
20260505194103 31 247 8.0 16.1 0.00 0.00 0.00 68 1008.5
20260505193618 31 287 6.4 14.5 0.00 0.00 0.00 68 1008.5
20260505193007 31 222 4.8 17.7 0.00 0.00 0.00 69 1008.6
20260505192526 31 217 8.0 17.7 0.00 0.00 0.00 67 1008.5
20260505192102 31 360 4.8 16.1 0.00 0.00 0.00 67 1008.6
20260505191620 31 169 6.4 16.1 0.00 0.00 0.00 66 1008.8
20260505191013 31 286 4.8 16.1 0.00 0.00 0.00 67 1008.7
20260505190528 31 294 6.4 16.1 0.00 0.00 0.00 67 1008.8
20260505190038 31 264 4.8 16.1 0.00 0.00 0.00 67 1008.8
20260505185528 31 248 8.0 14.5 0.00 0.00 0.00 66 1008.8
20260505185053 30 200 4.8 19.3 0.00 0.00 0.00 65 1008.9
20260505184612 30 180 8.0 19.3 0.00 0.00 0.00 65 1008.9
20260505184008 30 224 6.4 16.1 0.00 0.00 0.00 66 1009.0
20260505183528 30 232 8.0 17.7 0.00 0.00 0.00 66 1009.0
20260505183050 30 216 8.0 17.7 0.00 0.00 0.00 65 1009.0
20260505182608 30 242 9.7 16.1 0.00 0.00 0.00 64 1009.1
20260505182020 30 175 8.0 16.1 0.00 0.00 0.00 65 1009.2
20260505181543 30 215 8.0 16.1 0.00 0.00 0.00 66 1009.2
20260505181047 30 240 6.4 14.5 0.00 0.00 0.00 66 1009.3
20260505180604 30 248 8.0 12.9 0.00 0.00 0.00 65 1009.3
20260505180011 30 257 6.4 12.9 0.00 0.00 0.00 66 1009.4
20260505175522 30 242 8.0 14.5 0.00 0.00 0.00 67 1009.4
20260505175104 30 226 6.4 14.5 0.00 0.00 0.00 68 1009.4
20260505174624 30 239 6.4 11.3 0.00 0.00 0.00 68 1009.4
20260505174034 30 221 6.4 12.9 0.00 0.00 0.00 65 1009.4
20260505173554 30 227 4.8 11.3 0.00 0.00 0.00 66 1009.4
20260505173009 30 248 6.4 11.3 0.00 0.00 0.00 66 1009.6
20260505172530 30 229 8.0 11.3 0.00 0.00 0.00 66 1009.6
20260505172058 30 229 4.8 11.3 0.00 0.00 0.00 67 1009.7
20260505171616 30 259 4.8 11.3 0.00 0.00 0.00 67 1009.7
20260505171002 30 217 3.2 9.7 0.00 0.00 0.00 67 1009.8
20260505170521 30 265 4.8 11.3 0.00 0.00 0.00 68 1009.9
20260505170105 29 35 4.8 11.3 0.00 0.00 0.00 68 1010.0
20260505165614 30 223 6.4 12.9 0.00 0.00 0.00 68 1010.1
20260505165013 30 217 8.0 12.9 0.00 0.00 0.00 67 1010.1
20260505164528 30 311 4.8 12.9 0.00 0.00 0.00 68 1010.1
20260505164056 30 281 3.2 11.3 0.00 0.00 0.00 67 1010.2
20260505163613 30 225 6.4 11.3 0.00 0.00 0.00 68 1010.2
20260505163004 29 170 3.2 11.3 0.00 0.00 0.00 69 1010.3
20260505162521 29 211 6.4 11.3 0.00 0.00 0.00 69 1010.4
20260505162057 29 296 6.4 11.3 0.00 0.00 0.00 68 1010.4
20260505161618 29 226 3.2 12.9 0.00 0.00 0.00 69 1010.4
20260505161012 28 292 3.2 9.7 0.00 0.00 0.00 70 1010.4
20260505160530 28 290 3.2 11.3 0.00 0.00 0.00 71 1010.4
20260505153110 27 219 4.8 12.9 0.00 0.00 0.00 73 1010.5
20260505152621 27 230 6.4 12.9 0.00 0.00 0.00 73 1010.4
20260505152012 27 220 4.8 8.0 0.00 0.00 0.00 74 1010.3
20260505151545 27 242 3.2 9.7 0.00 0.00 0.00 74 1010.3
20260505151112 27 197 3.2 9.7 0.00 0.00 0.00 74 1010.3
20260505150630 27 209 4.8 9.7 0.00 0.00 0.00 76 1010.3
20260505140625 25 104 0.0 3.2 0.00 0.00 0.00 78 1010.0
20260505124516 23 102 0.0 1.6 0.00 0.00 0.00 74 1009.6
20260505124100 23 102 0.0 1.6 0.00 0.00 0.00 74 1009.5
20260505123613 22 102 0.0 1.6 0.00 0.00 0.00 74 1009.4
20260505123020 23 102 0.0 0.0 0.00 0.00 0.00 76 1009.3
20260505122606 23 102 0.0 0.0 0.00 0.00 0.00 77 1009.3
20260505122008 23 102 0.0 0.0 0.00 0.00 0.00 79 1009.1
20260505121528 23 102 0.0 0.0 0.00 0.00 0.00 80 1009.1
20260505121108 23 102 0.0 0.0 0.00 0.00 0.00 80 1009.1
20260505120623 23 102 0.0 0.0 0.00 0.00 0.00 80 1009.0
20260505120044 23 102 0.0 0.0 0.00 0.00 0.00 80 1009.0
20260505115623 23 102 0.0 0.0 0.00 0.00 0.00 80 1008.9
20260505115036 23 102 0.0 0.0 0.00 0.00 0.00 79 1008.9
20260505114554 23 102 0.0 0.0 0.00 0.00 0.00 79 1008.8
20260505114011 23 102 0.0 0.0 0.00 0.00 0.00 79 1008.8
20260505113525 23 102 0.0 1.6 0.00 0.00 0.00 80 1008.7
20260505113054 23 102 0.0 3.2 0.00 0.00 0.00 80 1008.7
20260505112613 23 102 0.0 3.2 0.00 0.00 0.00 80 1008.7
20260505112007 23 102 0.0 3.2 0.00 0.00 0.00 80 1008.7
20260505111522 23 102 0.0 3.2 0.00 0.00 0.00 81 1008.7
20260505111030 24 102 0.0 3.2 0.00 0.00 0.00 81 1008.7
20260505110543 24 102 0.0 3.2 0.00 0.00 0.00 81 1008.6
20260505102015 24 103 0.0 0.0 0.00 0.00 0.00 80 1008.6
20260505101533 25 103 0.0 0.0 0.00 0.00 0.00 80 1008.7
20260505101056 25 103 0.0 0.0 0.00 0.00 0.00 80 1008.7
20260505100616 25 103 0.0 0.0 0.00 0.00 0.00 80 1008.7
20260505100010 25 103 0.0 0.0 0.00 0.00 0.00 80 1008.8
20260505095529 25 103 0.0 0.0 0.00 0.00 0.00 80 1008.7
20260505095059 25 103 0.0 0.0 0.00 0.00 0.00 80 1008.7
20260505094616 25 103 0.0 0.0 0.00 0.00 0.00 80 1008.7
20260505094011 25 103 0.0 0.0 0.00 0.00 0.00 80 1008.8
20260505093528 25 103 0.0 0.0 0.00 0.00 0.00 80 1008.8
20260505093113 25 103 0.0 0.0 0.00 0.00 0.00 80 1008.7
20260505092626 25 103 0.0 0.0 0.00 0.00 0.00 80 1008.8
20260505092018 25 103 0.0 0.0 0.00 0.00 0.00 79 1008.9
20260505091532 25 103 0.0 0.0 0.00 0.00 0.00 79 1008.9
20260505091100 25 112 0.0 0.0 0.00 0.00 0.00 79 1008.9
20260505090615 25 112 0.0 0.0 0.00 0.00 0.00 79 1008.8
20260505090015 25 112 0.0 0.0 0.00 0.00 0.00 79 1008.9
20260505085531 25 112 0.0 0.0 0.00 0.00 0.00 79 1008.9
20260505085115 25 112 0.0 0.0 0.00 0.00 0.00 78 1008.9
20260505084633 25 112 0.0 0.0 0.00 0.00 0.00 78 1008.9
20260505084050 25 112 0.0 0.0 0.00 0.00 0.00 78 1008.9
20260505083609 25 112 0.0 1.6 0.00 0.00 0.00 78 1008.9
20260505083019 25 112 0.0 1.6 0.00 0.00 0.00 78 1008.9
20260505082537 25 112 0.0 3.2 0.00 0.00 0.00 77 1009.0
20260505082100 25 112 0.0 3.2 0.00 0.00 0.00 77 1008.9
20260505081619 25 112 1.6 3.2 0.00 0.00 0.00 77 1009.0
20260505081010 25 112 1.6 3.2 0.00 0.00 0.00 78 1009.1
20260505080527 25 112 0.0 3.2 0.00 0.00 0.00 78 1009.2
20260505080055 26 113 1.6 4.8 0.00 0.00 0.00 78 1009.2
20260505075613 26 114 1.6 4.8 0.00 0.00 0.00 78 1009.3
20260505075136 26 92 0.0 3.2 0.00 0.00 0.00 79 1009.3
20260505074518 26 92 0.0 0.0 0.00 0.00 0.00 79 1009.4
20260505074111 26 92 0.0 0.0 0.00 0.00 0.00 80 1009.3
20260505073630 26 92 0.0 0.0 0.00 0.00 0.00 80 1009.4
20260505073008 26 92 0.0 0.0 0.00 0.00 0.00 80 1009.3
20260505072530 26 92 0.0 0.0 0.00 0.00 0.00 80 1009.4
20260505072100 26 5 0.0 1.6 0.00 0.00 0.00 81 1009.4
20260505071619 26 340 0.0 3.2 0.00 0.00 0.00 81 1009.5
20260505071005 26 340 1.6 3.2 0.00 0.00 0.00 81 1009.6
20260505070529 26 331 0.0 3.2 0.00 0.00 0.00 81 1009.6
20260505070057 26 331 0.0 4.8 0.00 0.00 0.00 81 1009.7
20260505065618 26 331 0.0 4.8 0.00 0.00 0.00 82 1009.7
20260505065015 26 330 0.0 4.8 0.00 0.00 0.00 82 1009.7
20260505064531 26 330 1.6 4.8 0.00 0.00 0.00 82 1009.8
20260505064059 26 296 0.0 4.8 0.00 0.00 0.00 82 1009.8
20260505063617 26 294 1.6 4.8 0.00 0.00 0.00 82 1009.8
20260505063004 26 292 3.2 4.8 0.00 0.00 0.00 82 1010.0
20260505062524 26 244 0.0 6.4 0.00 0.00 0.00 82 1010.0
20260505062050 26 244 1.6 6.4 0.00 0.00 0.00 82 1010.0
20260505061612 26 242 1.6 6.4 0.00 0.00 0.00 82 1010.0
20260505061006 26 244 1.6 8.0 0.00 0.00 0.00 82 1010.0
20260505060525 26 244 3.2 8.0 0.00 0.00 0.00 82 1010.0
20260505060046 26 242 1.6 6.4 0.00 0.00 0.00 82 1010.0
20260505055603 26 234 1.6 4.8 0.00 0.00 0.00 82 1010.1
20260505055001 26 235 1.6 6.4 0.00 0.00 0.00 82 1010.1
20260505054532 26 234 0.0 6.4 0.00 0.00 0.00 82 1010.2
20260505054100 26 250 3.2 6.4 0.00 0.00 0.00 81 1010.3
20260505053619 26 242 3.2 6.4 0.00 0.00 0.00 81 1010.3
20260505053133 26 205 0.0 4.8 0.00 0.00 0.00 81 1010.3
20260505052517 26 203 1.6 4.8 0.00 0.00 0.00 81 1010.2
20260505052047 26 202 1.6 6.4 0.00 0.00 0.00 81 1010.3
20260505051609 26 236 3.2 6.4 0.00 0.00 0.00 81 1010.2
20260505051009 26 213 3.2 8.0 0.00 0.00 0.00 81 1010.2
20260505050531 26 207 3.2 8.0 0.00 0.00 0.00 81 1010.2
20260505041627 27 202 3.2 6.4 0.00 0.00 0.00 80 1009.8
20260505041011 27 218 3.2 6.4 0.00 0.00 0.00 80 1009.7
20260505040531 27 249 3.2 6.4 0.00 0.00 0.00 80 1009.7
20260505040047 27 221 1.6 6.4 0.00 0.00 0.00 80 1009.5
20260505035608 27 233 1.6 4.8 0.00 0.00 0.00 80 1009.5
20260505035019 27 255 1.6 6.4 0.00 0.00 0.00 80 1009.5
20260505034539 27 254 1.6 6.4 0.00 0.00 0.00 80 1009.4
20260505034108 27 232 3.2 9.7 0.00 0.00 0.00 80 1009.4
20260505033621 27 213 4.8 9.7 0.00 0.00 0.00 80 1009.4
20260505033021 27 225 1.6 6.4 0.00 0.00 0.00 80 1009.3
20260505032537 27 234 3.2 8.0 0.00 0.00 0.00 80 1009.3
20260505032054 27 217 1.6 6.4 0.00 0.00 0.00 80 1009.3
20260505031609 27 274 1.6 6.4 0.00 0.00 0.00 80 1009.2
20260505031008 27 260 1.6 8.0 0.00 0.00 0.00 80 1009.2
20260505030521 27 223 3.2 8.0 0.00 0.00 0.00 80 1009.1
20260505030055 27 226 1.6 8.0 0.00 0.00 0.00 80 1009.1
20260505025617 27 250 1.6 9.7 0.00 0.00 0.00 80 1009.0
20260505025010 27 194 4.8 8.0 0.00 0.00 0.00 80 1009.0
20260505024533 27 201 1.6 8.0 0.00 0.00 0.00 80 1009.0
20260505024049 27 246 1.6 12.9 0.00 0.00 0.00 80 1008.9
20260505023606 27 215 4.8 12.9 0.00 0.00 0.00 80 1008.8
20260505023001 27 240 3.2 12.9 0.00 0.00 0.00 80 1008.8
20260505022522 27 252 1.6 12.9 0.00 0.00 0.00 80 1008.8
20260505022102 27 261 4.8 12.9 0.00 0.00 0.00 79 1008.7
20260505021616 27 281 3.2 11.3 0.00 0.00 0.00 79 1008.7
20260505021024 27 242 3.2 11.3 0.00 0.00 0.00 79 1008.6
20260505020537 27 275 3.2 12.9 0.00 0.00 0.00 79 1008.6
20260505020041 27 206 1.6 8.0 0.00 0.00 0.00 79 1008.5
20260505015535 27 227 4.8 12.9 0.00 0.00 0.00 79 1008.4
20260505015057 27 260 4.8 12.9 0.00 0.00 0.00 79 1008.4
20260505014613 27 277 4.8 11.3 0.00 0.00 0.00 79 1008.3
20260505014017 27 234 3.2 8.0 0.00 0.00 0.00 79 1008.3
20260505013535 27 217 3.2 8.0 0.00 0.00 0.00 79 1008.3
20260505013108 27 225 3.2 9.7 0.00 0.00 0.00 78 1008.3
20260505012632 27 229 3.2 12.9 0.00 0.00 0.00 78 1008.4
20260505012021 27 325 6.4 12.9 0.00 0.00 0.00 78 1008.4
20260505011541 27 240 4.8 11.3 0.00 0.00 0.00 78 1008.4
20260505011105 27 218 3.2 14.5 0.00 0.00 0.00 78 1008.4
20260505010618 28 350 6.4 14.5 0.00 0.00 0.00 78 1008.5
20260505010017 28 261 3.2 17.7 0.00 0.00 0.00 78 1008.4
20260505005535 28 263 8.0 17.7 0.00 0.00 0.00 78 1008.5
20260505005105 28 218 4.8 16.1 0.00 0.00 0.00 78 1008.5
20260505004625 28 213 3.2 16.1 0.00 0.00 0.00 78 1008.5
20260505004015 28 266 6.4 12.9 0.00 0.00 0.00 78 1008.5
20260505003529 28 232 6.4 12.9 0.00 0.00 0.00 78 1008.5
20260505003104 28 262 4.8 12.9 0.00 0.00 0.00 77 1008.5
20260505002621 28 193 6.4 16.1 0.00 0.00 0.00 77 1008.6
20260505002009 28 236 3.2 16.1 0.00 0.00 0.00 76 1008.6
20260505001531 28 234 4.8 14.5 0.00 0.00 0.00 76 1008.6
20260505001101 28 243 4.8 14.5 0.00 0.00 0.00 77 1008.5
20260505000618 28 225 6.4 17.7 0.00 0.00 0.00 76 1008.6
20260505000146 28 257 8.0 17.7 0.00 0.00 0.00 76 1008.5
20260504235525 28 250 4.8 17.7 0.00 0.00 0.00 75 1008.5
20260504235102 28 242 8.0 17.7 0.00 0.00 0.00 75 1008.5
20260504234638 29 244 8.0 14.5 0.00 0.00 0.00 75 1008.5
20260504234014 29 150 8.0 16.1 0.00 0.00 0.00 76 1008.6
20260504233538 29 282 6.4 16.1 0.00 0.00 0.00 76 1008.5
20260504233105 29 220 4.8 16.1 0.00 0.00 0.00 76 1008.4
20260504232625 29 168 8.0 16.1 0.00 0.00 0.00 75 1008.6
20260504232011 29 200 8.0 17.7 0.00 0.00 0.00 76 1008.6
20260504231541 29 218 8.0 17.7 0.00 0.00 0.00 75 1008.6
20260504231109 29 252 8.0 20.9 0.00 0.00 0.00 75 1008.7
20260504230625 29 190 11.3 17.7 0.00 0.00 0.00 74 1008.7
20260504230039 30 238 11.3 17.7 0.00 0.00 0.00 73 1008.7
20260504225607 30 254 6.4 17.7 0.00 0.00 0.00 74 1008.8
20260504225134 30 169 4.8 17.7 0.00 0.00 0.00 74 1008.8
20260504224520 30 180 9.7 17.7 0.00 0.00 0.00 74 1008.9